[[{"header":{"parameterUnit":"m.s-1","parameterCategory":2,"la1":30.2991,"la2":30.254,"lo1":-89.0895,"lo2":-89.0444,"dy":0.0017,"dx":0.0017,"nx":28,"ny":28,"refTime":"2025-08-18T09:00:00:Z","depth":"0","parameterNumber":2,"parameterNumberName":"U-component_of_CURRENTS"},"data":[0,0,0,0,0,0,0,0,0,0,0,0,0,0,0,0,0,0,0,0,0,0,0,0,0,0,0,0,0,0,0,0,0,0,0,0,0,0,0,0,0,0,0,0,0,0,0,0,0,0,0,0,0,0,0,0,0,0,0.3434,0.3435,0,0.3476,0.3476,0.3477,0.3464,0.3463,0.3462,0.3462,0.3484,0.3485,0.3486,0,0,0,0,0,0,0,0,0,0,0,0,0,0.3355,0.3356,0.3434,0.3435,0.3435,0.3476,0.3476,0.3477,0.3464,0.3463,0.3462,0.3461,0.3483,0.3485,0.3486,0,0,0,0,0,0,0,0,0,0,0,0,0,0.3391,0.3357,0.3434,0.3435,0.3435,0.3476,0.3476,0.3477,0.3464,0.3463,0.3462,0.3461,0.3483,0.3485,0.3487,0.3522,0,0,0.3493,0.3493,0,0,0,0,0,0,0,0,0.3389,0.3394,0.3434,0.3435,0.3435,0.3464,0.3457,0.3492,0.3465,0.3452,0.3462,0.346,0.3477,0.3479,0.3489,0.3523,0.3524,0.3493,0.3494,0.3495,0.3495,0,0,0,0,0,0,0,0.3387,0.3392,0.345,0.3435,0.3436,0.3437,0.344,0.3463,0.347,0.3453,0.3453,0.3459,0.3477,0.3487,0.3489,0.3525,0.3493,0.3495,0.3496,0.3496,0.3594,0.3596,0,0,0,0,0,0,0.3385,0.339,0.3448,0.3451,0.341,0.3439,0.3443,0.3456,0.347,0.3471,0.346,0.3459,0.3484,0.3487,0.349,0.3547,0.3495,0.3497,0.3498,0.3593,0.3595,0.3596,0,0,0,0,0,0,0.3383,0.339,0.3447,0.3422,0.3429,0.3442,0.3456,0.3457,0.3464,0.3476,0.3476,0.3465,0.3483,0.3487,0.3522,0.3547,0.3498,0.3499,0.3591,0.3594,0.3596,0.3652,0,0,0,0,0,0,0.338,0.3389,0.3399,0.3422,0.343,0.3476,0.3457,0.3459,0.347,0.3468,0.348,0.3481,0.3483,0.3519,0.3524,0.3549,0.3501,0.359,0.3592,0.3595,0.3649,0.3656,0.3662,0,0,0,0,0,0.3377,0.3398,0.34,0.3407,0.3444,0.3477,0.3482,0.3486,0.3472,0.3485,0.3497,0.348,0.3539,0.3523,0.3528,0.3553,0.3588,0.3592,0.3595,0.3645,0.3655,0.3662,0,0,0,0,0,0,0.3372,0.3399,0.3402,0.343,0.3454,0.3476,0.349,0.3489,0.3509,0.3506,0.3506,0.351,0.3555,0.3546,0.3528,0.3589,0.3558,0.3563,0.3595,0.3604,0.3611,0.3664,0.3503,0,0,0,0,0,0.3376,0.3396,0.3423,0.3446,0.3459,0.3474,0.3487,0.3491,0.3511,0.3517,0.3531,0.3545,0.3575,0.358,0.3609,0.364,0.369,0.3657,0.3664,0.367,0.3717,0.3822,0.3844,0.3607,0.3607,0.3607,0,0,0.3383,0.3399,0.3411,0.3446,0.3463,0.3501,0.3479,0.3504,0.3541,0.3519,0.3572,0.358,0.3593,0.3637,0.3653,0.3628,0.3758,0.3674,0.3679,0.3724,0.3828,0.3852,0.3873,0.3609,0.3609,0.3608,0,0,0.3404,0.3419,0.3442,0.3469,0.3498,0.3517,0.3525,0.3555,0.3571,0.3617,0.3619,0.3651,0.3677,0.3706,0.3718,0.3781,0.3803,0.3768,0.3836,0.3936,0.3958,0.3977,0.4052,0.4078,0.3757,0.3757,0.3757,0,0.3411,0.3445,0.3455,0.3489,0.3519,0.3527,0.3568,0.3598,0.3637,0.3668,0.3639,0.3728,0.3722,0.3803,0.3819,0.3801,0.3857,0.3799,0.3949,0.3969,0.3989,0.4061,0.4089,0.376,0.376,0.376,0.3759,0,0.3452,0.3484,0.3503,0.3552,0.3586,0.3623,0.3666,0.3701,0.3713,0.3745,0.3826,0.3839,0.3888,0.3881,0.3868,0.3992,0.3987,0.3957,0.3932,0.4017,0.4086,0.4114,0.3765,0.3764,0.3763,0.3762,0,0,0.3456,0.352,0.3527,0.3567,0.3623,0.3662,0.3726,0.3797,0.3852,0.3891,0.398,0.402,0.4028,0.4047,0.4037,0.4116,0.4269,0.4096,0.41,0.418,0.4496,0.438,0.4398,0.4271,0.4276,0.4281,0.4483,0,0.3486,0.3562,0.3583,0.367,0.3721,0.3754,0.3819,0.3885,0.3929,0.4019,0.4061,0.4136,0.4089,0.4113,0.4192,0.4263,0.4351,0.4218,0.4397,0.4402,0.4297,0.443,0.4203,0.4356,0.4511,0.4515,0.4519,0,0.3518,0.3572,0.3653,0.3746,0.377,0.3821,0.3929,0.3987,0.4099,0.4134,0.4217,0.4255,0.4381,0.432,0.4518,0.4439,0.449,0.4536,0.4543,0.4448,0.434,0.4301,0.4402,0.4223,0.4562,0.4559,0.4555,0,0.3532,0.362,0.3688,0.3723,0.3826,0.387,0.3926,0.4025,0.41,0.4222,0.4296,0.4422,0.4509,0.4614,0.4682,0.4625,0.4906,0.4822,0.4775,0.4765,0.4617,0.4585,0.4578,0.4996,0.4996,0.4995,0.4995,0,0.3566,0.3623,0.3702,0.375,0.3855,0.3899,0.4013,0.4075,0.4189,0.4285,0.4363,0.447,0.4599,0.4742,0.4779,0.4876,0.4982,0.4848,0.4836,0.4623,0.459,0.446,0.4392,0.5003,0.5001,0.4999,0.4998,0,0.359,0.3624,0.3728,0.3834,0.3867,0.3951,0.4078,0.4149,0.4244,0.4377,0.4427,0.4586,0.4745,0.4861,0.5042,0.4995,0.4935,0.509,0.4817,0.4769,0.4485,0.4429,0.4374,0.4256,0.5071,0.507,0.5069,0,0.3619,0.3668,0.38,0.3853,0.3905,0.4015,0.4076,0.4177,0.4236,0.4423,0.448,0.469,0.4773,0.5,0.4989,0.5062,0.4926,0.4882,0.4718,0.4491,0.4423,0.4271,0.4164,0.4546,0.4541,0.4537,0.4533,0,0.3707,0.3742,0.383,0.3915,0.3988,0.4058,0.4135,0.4188,0.4275,0.4371,0.4455,0.4544,0.474,0.4712,0.4826,0.482,0.4598,0.4791,0.4648,0.4111,0.3862,0.373,0.438,0.4495,0.4499,0.4501,0.4503,0.4505,0.3783,0.3848,0.392,0.3982,0.4038,0.4015,0.4012,0.4064,0.4109,0.4144,0.4324,0.4365,0.4434,0.4534,0.4517,0.4285,0.4335,0.4115,0.4104,0.3999,0.3763,0.4315,0.4342,0.4345,0.4348,0.435,0.4352,0,0.3864,0.3894,0.3963,0.3985,0.3953,0.3981,0.3975,0.3896,0.3845,0.3963,0.4002,0.3991,0.3957,0.3981,0.3811,0.3621,0.3465,0.3503,0.3238,0.3198,0.3772,0.3619,0.3375,0.3375,0.3375,0.3375,0.3375,0.3376,0.3914,0.3956,0.3938,0.3856,0.383,0.369,0.3624,0.3532,0.3544,0.345,0.3427,0.3503,0.3532,0.3419,0.3172,0.3085,0.2847,0.2703,0.2749,0.312,0.3174,0.3226,0.3064,0.2708,0.2708,0.2011,0.2006,0.2002]},{"header":{"parameterUnit":"m.s-1","parameterCategory":2,"la1":30.2991,"la2":30.254,"lo1":-89.0895,"lo2":-89.0444,"dy":0.0017,"dx":0.0017,"nx":28,"ny":28,"refTime":"2025-08-18T09:00:00:Z","depth":"0","parameterNumber":3,"parameterNumberName":"V-component_of_CURRENTS"},"data":[0,0,0,0,0,0,0,0,0,0,0,0,0,0,0,0,0,0,0,0,0,0,0,0,0,0,0,0,0,0,0,0,0,0,0,0,0,0,0,0,0,0,0,0,0,0,0,0,0,0,0,0,0,0,0,0,0,0,0.0353,0.0353,0,0.0333,0.0332,0.0332,0.0298,0.0297,0.0297,0.0297,0.0224,0.0222,0.0221,0,0,0,0,0,0,0,0,0,0,0,0,0,0.0335,0.0336,0.0353,0.0353,0.0353,0.0333,0.0332,0.0332,0.0298,0.0297,0.0297,0.0296,0.0224,0.0222,0.0221,0,0,0,0,0,0,0,0,0,0,0,0,0,0.033,0.0336,0.0353,0.0335,0.0333,0.0333,0.0332,0.0332,0.0298,0.0297,0.0297,0.0296,0.0225,0.0223,0.022,0.022,0,0,0.0213,0.0212,0,0,0,0,0,0,0,0,0.033,0.033,0.0338,0.0336,0.0334,0.0319,0.0299,0.0292,0.0298,0.0309,0.0297,0.0296,0.0252,0.0248,0.0243,0.0216,0.0213,0.0213,0.0212,0.0211,0.021,0,0,0,0,0,0,0,0.0331,0.0331,0.0343,0.0338,0.0336,0.0319,0.0317,0.0298,0.0282,0.0308,0.0306,0.0308,0.0251,0.0246,0.0241,0.0212,0.0213,0.0211,0.021,0.0209,0.0188,0.0189,0,0,0,0,0,0,0.034,0.0332,0.0344,0.0342,0.0333,0.032,0.0318,0.0323,0.0284,0.0278,0.0308,0.0306,0.025,0.0244,0.0239,0.0262,0.0211,0.0209,0.0207,0.0187,0.0188,0.0189,0,0,0,0,0,0,0.0339,0.0341,0.0344,0.0338,0.0337,0.0321,0.0327,0.0323,0.0318,0.0284,0.0277,0.0307,0.0249,0.0242,0.0228,0.0258,0.0208,0.0205,0.0186,0.0188,0.0189,0.0292,0,0,0,0,0,0,0.0339,0.0341,0.0346,0.0339,0.0338,0.035,0.0327,0.0323,0.032,0.0317,0.0281,0.0274,0.0248,0.0232,0.0226,0.0254,0.0204,0.0185,0.0187,0.0188,0.0288,0.0297,0.0305,0,0,0,0,0,0.0339,0.0356,0.0347,0.0348,0.0346,0.0351,0.0349,0.0334,0.0321,0.0325,0.0302,0.0275,0.0237,0.0231,0.0224,0.0252,0.0185,0.0187,0.0188,0.0284,0.0295,0.0304,0,0,0,0,0,0,0.0353,0.0354,0.0344,0.036,0.0356,0.0346,0.0351,0.0339,0.0324,0.0319,0.0283,0.0275,0.0276,0.0245,0.0239,0.0249,0.0207,0.0208,0.0283,0.0293,0.0301,0.0347,0.0202,0,0,0,0,0,0.0359,0.037,0.0365,0.0377,0.0378,0.0364,0.0363,0.0353,0.0341,0.0334,0.0314,0.029,0.0279,0.027,0.0252,0.0255,0.0258,0.0267,0.0276,0.0283,0.0315,0.0349,0.0365,0.0195,0.0195,0.0195,0,0,0.0369,0.037,0.0377,0.0381,0.0376,0.0396,0.0361,0.0367,0.0388,0.0328,0.0348,0.0319,0.0285,0.0295,0.0292,0.0272,0.0329,0.0286,0.0293,0.0321,0.0353,0.037,0.0385,0.0197,0.0196,0.0196,0,0,0.0404,0.0395,0.042,0.0422,0.0422,0.0417,0.0422,0.0416,0.0417,0.0424,0.0395,0.0392,0.0361,0.0362,0.0352,0.0396,0.0373,0.0376,0.0459,0.0491,0.0507,0.052,0.0537,0.0551,0.0381,0.0381,0.0381,0,0.0414,0.0452,0.0428,0.0453,0.0473,0.0433,0.0474,0.0467,0.0461,0.0488,0.0442,0.0451,0.0405,0.0451,0.0454,0.042,0.0427,0.0425,0.0506,0.052,0.0532,0.0546,0.056,0.0386,0.0385,0.0385,0.0384,0,0.0475,0.0502,0.0518,0.0543,0.0553,0.0581,0.0574,0.0589,0.0579,0.0586,0.0624,0.0572,0.0591,0.0561,0.0513,0.0581,0.0553,0.0515,0.0489,0.0556,0.0565,0.0578,0.0393,0.0392,0.039,0.0389,0,0,0.0511,0.0557,0.0562,0.061,0.061,0.0642,0.0671,0.072,0.0781,0.075,0.0841,0.0788,0.0775,0.0764,0.0713,0.0718,0.0778,0.0653,0.0652,0.0686,0.0849,0.0791,0.0799,0.0756,0.0759,0.0762,0.0819,0,0.0573,0.066,0.0658,0.075,0.0803,0.0791,0.0836,0.0867,0.0882,0.0952,0.0919,0.0965,0.0849,0.0867,0.0858,0.0815,0.082,0.0767,0.0766,0.0766,0.0721,0.0815,0.0766,0.0811,0.0831,0.0833,0.0835,0,0.0641,0.0698,0.0797,0.0897,0.092,0.096,0.1061,0.1099,0.1158,0.1175,0.1209,0.1185,0.1209,0.1087,0.1069,0.1043,0.096,0.0901,0.0902,0.083,0.0735,0.0747,0.0833,0.0631,0.0855,0.0853,0.0852,0,0.0712,0.0806,0.0903,0.0929,0.1013,0.1069,0.1117,0.1176,0.1252,0.1334,0.1408,0.141,0.1449,0.1358,0.122,0.1161,0.1191,0.1098,0.0971,0.0964,0.0916,0.0901,0.0826,0.109,0.109,0.109,0.109,0,0.0797,0.0878,0.095,0.1005,0.1144,0.1162,0.1308,0.1351,0.1446,0.1577,0.154,0.1649,0.152,0.1506,0.1333,0.1217,0.1288,0.1025,0.0995,0.0946,0.0933,0.0746,0.0638,0.1092,0.1092,0.1091,0.1091,0,0.0869,0.0905,0.1032,0.1138,0.118,0.1281,0.1426,0.153,0.1602,0.1776,0.1818,0.1875,0.1871,0.1713,0.1597,0.1394,0.1147,0.1183,0.1125,0.1086,0.0746,0.0646,0.0595,0.0524,0.107,0.1069,0.1069,0,0.0918,0.0985,0.1126,0.1204,0.1258,0.14,0.1495,0.1596,0.1713,0.1919,0.202,0.2087,0.2157,0.1972,0.165,0.1389,0.1176,0.1119,0.0984,0.076,0.0626,0.0567,0.0507,0.0956,0.0955,0.0954,0.0953,0,0.1014,0.1052,0.1146,0.1297,0.1414,0.1567,0.1714,0.1831,0.1973,0.2133,0.2338,0.2423,0.2282,0.2037,0.1664,0.1434,0.0975,0.1083,0.0884,0.0576,0.048,0.0385,0.0869,0.0941,0.0943,0.0943,0.0944,0.0944,0.107,0.1148,0.125,0.1398,0.1532,0.1697,0.1829,0.2002,0.2211,0.246,0.2541,0.2704,0.2309,0.1825,0.1519,0.0865,0.0919,0.0627,0.0541,0.0515,0.0399,0.0851,0.0857,0.0857,0.0858,0.0858,0.0859,0,0.1131,0.121,0.1346,0.1512,0.1651,0.1717,0.1946,0.209,0.2336,0.2593,0.2782,0.2657,0.2157,0.1626,0.0769,0.0373,0.0242,0.0156,0.0049,0.0025,0.0454,0.0395,0.0261,0.0261,0.0262,0.0262,0.0262,0.0262,0.1166,0.128,0.1345,0.1561,0.168,0.1871,0.1998,0.2234,0.2451,0.2724,0.2829,0.2903,0.2391,0.0982,0.0056,-0.0134,-0.0377,-0.0423,-0.0504,-0.0267,-0.0231,-0.0196,-0.0278,-0.0551,-0.0552,-0.0904,-0.0908,-0.0911]}],[{"header":{"parameterUnit":"m.s-1","parameterCategory":2,"la1":30.2991,"la2":30.254,"lo1":-89.0895,"lo2":-89.0444,"dy":0.0017,"dx":0.0017,"nx":28,"ny":28,"refTime":"2025-08-18T09:00:00:Z","depth":"2","parameterNumber":2,"parameterNumberName":"U-component_of_CURRENTS"},"data":[0,0,0,0,0,0,0,0,0,0,0,0,0,0,0,0,0,0,0,0,0,0,0,0,0,0,0,0,0,0,0,0,0,0,0,0,0,0,0,0,0,0,0,0,0,0,0,0,0,0,0,0,0,0,0,0,0,0,0.2624,0.2624,0,0.2667,0.2667,0.2668,0.2641,0.264,0.2639,0.2638,0.267,0.2672,0.2673,0,0,0,0,0,0,0,0,0,0,0,0,0,0.2558,0.2559,0.2624,0.2624,0.2625,0.2667,0.2667,0.2668,0.2641,0.264,0.2638,0.2637,0.2669,0.2671,0.2674,0,0,0,0,0,0,0,0,0,0,0,0,0,0.2592,0.256,0.2624,0.2617,0.2617,0.2667,0.2667,0.2668,0.2642,0.264,0.2638,0.2636,0.2668,0.2671,0.2674,0.2728,0,0,0.2683,0.2684,0,0,0,0,0,0,0,0,0.259,0.2594,0.2618,0.2618,0.2618,0.2647,0.2656,0.2688,0.2642,0.2632,0.2637,0.2635,0.2663,0.2666,0.2677,0.273,0.2731,0.2683,0.2685,0.2686,0.2687,0,0,0,0,0,0,0,0.2588,0.2592,0.264,0.2618,0.2619,0.2626,0.2628,0.2662,0.2656,0.2632,0.2631,0.2637,0.2663,0.2675,0.2678,0.2731,0.2683,0.2686,0.2688,0.2689,0.2799,0.28,0,0,0,0,0,0,0.2584,0.259,0.2639,0.2641,0.26,0.2629,0.2631,0.2639,0.2656,0.2657,0.2639,0.2636,0.2671,0.2675,0.2679,0.2747,0.2686,0.2689,0.2691,0.2798,0.2799,0.28,0,0,0,0,0,0,0.2582,0.2588,0.2637,0.2617,0.2624,0.2631,0.2641,0.2641,0.2662,0.2661,0.2661,0.266,0.2669,0.2675,0.2686,0.2748,0.269,0.2693,0.2796,0.2798,0.28,0.2881,0,0,0,0,0,0,0.258,0.2587,0.2589,0.2617,0.2625,0.2658,0.2643,0.2643,0.2668,0.2665,0.268,0.268,0.2668,0.2681,0.2689,0.2751,0.2695,0.2795,0.2797,0.2799,0.2877,0.2886,0.2893,0,0,0,0,0,0.2578,0.2579,0.2589,0.2595,0.2628,0.2658,0.2663,0.2662,0.2671,0.2676,0.2672,0.268,0.2701,0.2684,0.2693,0.2757,0.2794,0.2796,0.2799,0.2874,0.2884,0.2893,0,0,0,0,0,0,0.2555,0.2578,0.2589,0.2598,0.2626,0.2653,0.2668,0.268,0.2688,0.2689,0.2688,0.2687,0.2729,0.2723,0.2704,0.2791,0.2754,0.2758,0.2808,0.2817,0.2825,0.2854,0.2698,0,0,0,0,0,0.2554,0.2564,0.2592,0.2608,0.2626,0.2659,0.2674,0.2679,0.2693,0.2697,0.2707,0.2721,0.2751,0.2761,0.2778,0.2824,0.2846,0.2871,0.2879,0.2886,0.2913,0.3001,0.302,0.2809,0.2809,0.2809,0,0,0.2553,0.257,0.2574,0.2604,0.2636,0.2665,0.2663,0.2696,0.2725,0.2702,0.2742,0.2754,0.2767,0.281,0.2831,0.281,0.2949,0.2889,0.2895,0.2919,0.3006,0.3027,0.3045,0.281,0.281,0.281,0,0,0.2566,0.2577,0.2594,0.2617,0.2658,0.2677,0.2693,0.273,0.275,0.2783,0.2787,0.2827,0.2854,0.2886,0.2905,0.2971,0.2991,0.2979,0.3047,0.3131,0.3151,0.3168,0.3193,0.3212,0.298,0.298,0.2981,0,0.2565,0.2589,0.2605,0.2634,0.2661,0.2689,0.2725,0.2755,0.2787,0.2825,0.2796,0.289,0.2901,0.2991,0.3007,0.2998,0.3024,0.3012,0.3146,0.3163,0.318,0.3202,0.3222,0.2985,0.2984,0.2984,0.2983,0,0.2598,0.2614,0.2635,0.2678,0.2708,0.2741,0.2787,0.2823,0.2854,0.2889,0.2976,0.2989,0.3044,0.3067,0.3059,0.3191,0.3162,0.3151,0.3129,0.3207,0.3223,0.3243,0.2991,0.2989,0.2988,0.2987,0,0,0.2598,0.2645,0.2649,0.2673,0.2732,0.2758,0.283,0.2904,0.2968,0.3003,0.3094,0.3159,0.3181,0.3205,0.3218,0.3297,0.3423,0.3279,0.3281,0.3315,0.358,0.3418,0.3422,0.3443,0.3447,0.3451,0.3534,0,0.2622,0.2664,0.2691,0.274,0.277,0.2822,0.2893,0.2964,0.3022,0.3107,0.3173,0.3263,0.3229,0.3281,0.3348,0.343,0.3483,0.3399,0.3489,0.3491,0.335,0.3444,0.3174,0.3215,0.3553,0.3556,0.3558,0,0.2642,0.2666,0.2717,0.2779,0.2804,0.2841,0.2958,0.3027,0.3159,0.3216,0.3306,0.3358,0.3495,0.3446,0.3607,0.3557,0.3573,0.3612,0.3615,0.3458,0.3368,0.3197,0.3237,0.3591,0.3588,0.3586,0.3584,0,0.2618,0.2677,0.2716,0.2736,0.2822,0.2869,0.293,0.3061,0.3152,0.3307,0.3383,0.3514,0.3607,0.368,0.3722,0.3701,0.3867,0.384,0.3694,0.368,0.3465,0.3424,0.3938,0.3938,0.3938,0.3938,0.3938,0,0.2615,0.2636,0.2704,0.2713,0.2775,0.2866,0.2968,0.3045,0.3216,0.3314,0.3438,0.352,0.3682,0.3767,0.378,0.3785,0.3906,0.3733,0.3713,0.3476,0.3438,0.3775,0.3755,0.3941,0.394,0.394,0.3939,0,0.2575,0.2615,0.2646,0.2728,0.2753,0.2802,0.2953,0.3022,0.3213,0.3344,0.3415,0.3599,0.3716,0.3799,0.3933,0.3854,0.3886,0.3833,0.351,0.345,0.3626,0.3609,0.3731,0.3726,0.3722,0.3719,0.3716,0,0.2555,0.258,0.2627,0.2644,0.2672,0.2765,0.2809,0.2981,0.3083,0.3345,0.3395,0.3586,0.3608,0.3724,0.3705,0.3702,0.3797,0.342,0.3332,0.3648,0.3617,0.3606,0.3594,0.3072,0.3064,0.3058,0.3053,0,0.2508,0.2531,0.2543,0.259,0.2605,0.2682,0.2784,0.2827,0.3039,0.316,0.3297,0.3349,0.3446,0.3341,0.3349,0.3301,0.341,0.3287,0.3758,0.3145,0.3028,0.2996,0.3007,0.2996,0.3002,0.3006,0.3009,0.3011,0.2473,0.2464,0.2486,0.2537,0.2567,0.2609,0.2596,0.2701,0.2797,0.2907,0.3052,0.3036,0.308,0.296,0.2864,0.2831,0.306,0.294,0.296,0.2987,0.2875,0.2756,0.265,0.2653,0.2656,0.2659,0.2661,0,0.2397,0.242,0.2449,0.2483,0.2471,0.255,0.2592,0.2515,0.2499,0.2616,0.2688,0.2458,0.2393,0.2461,0.2314,0.2286,0.2271,0.2206,0.2188,0.2246,0.2297,0.2151,0.1733,0.173,0.1727,0.1725,0,0,0.2357,0.2312,0.2332,0.2339,0.2409,0.2361,0.2327,0.2188,0.2212,0.2096,0.2117,0.2288,0.2379,0.2036,0.1985,0.1843,0.2027,0.1763,0.2514,0.2552,0.2599,0.2731,0.257,0,0,0,0,0]},{"header":{"parameterUnit":"m.s-1","parameterCategory":2,"la1":30.2991,"la2":30.254,"lo1":-89.0895,"lo2":-89.0444,"dy":0.0017,"dx":0.0017,"nx":28,"ny":28,"refTime":"2025-08-18T09:00:00:Z","depth":"2","parameterNumber":3,"parameterNumberName":"V-component_of_CURRENTS"},"data":[0,0,0,0,0,0,0,0,0,0,0,0,0,0,0,0,0,0,0,0,0,0,0,0,0,0,0,0,0,0,0,0,0,0,0,0,0,0,0,0,0,0,0,0,0,0,0,0,0,0,0,0,0,0,0,0,0,0,0.0115,0.0115,0,0.0088,0.0087,0.0087,0.006,0.006,0.006,0.006,0.0009,0.0008,0.0006,0,0,0,0,0,0,0,0,0,0,0,0,0,0.01,0.0101,0.0115,0.0115,0.0115,0.0088,0.0087,0.0087,0.006,0.006,0.006,0.0059,0.0009,0.0008,0.0006,0,0,0,0,0,0,0,0,0,0,0,0,0,0.0091,0.0101,0.0115,0.01,0.0098,0.0088,0.0087,0.0087,0.006,0.006,0.006,0.0059,0.001,0.0008,0.0006,0.0,0,0,0.0001,-0.0,0,0,0,0,0,0,0,0,0.0092,0.0092,0.0102,0.0101,0.0099,0.0079,0.0063,0.0057,0.006,0.0073,0.006,0.0059,0.0031,0.0028,0.0021,-0.0002,-0.0004,0.0,-0.0001,-0.0001,-0.0002,0,0,0,0,0,0,0,0.0093,0.0093,0.0103,0.0102,0.01,0.0079,0.0078,0.0062,0.0052,0.0071,0.007,0.007,0.003,0.0023,0.0019,-0.0005,0.0001,-0.0001,-0.0002,-0.0003,-0.0023,-0.0023,0,0,0,0,0,0,0.0103,0.0094,0.0103,0.0102,0.0097,0.008,0.0078,0.0084,0.0053,0.0048,0.007,0.0069,0.0026,0.0022,0.0018,0.0034,-0.0001,-0.0003,-0.0004,-0.0024,-0.0023,-0.0023,0,0,0,0,0,0,0.0103,0.0104,0.0105,0.0098,0.0097,0.0081,0.0087,0.0084,0.008,0.0052,0.0047,0.0071,0.0025,0.002,0.0009,0.0031,-0.0004,-0.0005,-0.0024,-0.0024,-0.0023,0.0051,0,0,0,0,0,0,0.0102,0.0104,0.0109,0.0099,0.0098,0.0108,0.0088,0.0083,0.0081,0.0079,0.0051,0.0046,0.0025,0.0012,0.0007,0.0028,-0.0007,-0.0025,-0.0024,-0.0023,0.0047,0.0054,0.0059,0,0,0,0,0,0.0102,0.0116,0.0109,0.011,0.0106,0.0109,0.0106,0.0092,0.0082,0.0086,0.0065,0.0047,0.0015,0.0011,0.0005,0.0026,-0.0025,-0.0024,-0.0023,0.0045,0.0053,0.0059,0,0,0,0,0,0,0.0112,0.0115,0.0107,0.0121,0.0118,0.0105,0.0108,0.0098,0.0084,0.008,0.0051,0.0045,0.0044,0.0022,0.0018,0.0022,-0.0007,-0.0007,0.0046,0.0053,0.0059,0.0074,-0.0008,0,0,0,0,0,0.0117,0.0128,0.0124,0.0134,0.0136,0.0122,0.012,0.0112,0.01,0.0094,0.0074,0.0054,0.0044,0.0038,0.0021,0.0023,-0.0,0.0032,0.0038,0.0043,0.0051,0.0045,0.0051,-0.0019,-0.0019,-0.0019,0,0,0.0122,0.0126,0.0131,0.0137,0.0132,0.0144,0.012,0.0124,0.0134,0.009,0.0094,0.0072,0.0048,0.0051,0.0049,0.0036,0.0047,0.0044,0.0049,0.0054,0.0047,0.0054,0.006,-0.0018,-0.0018,-0.0018,0,0,0.0147,0.0145,0.0164,0.0167,0.0168,0.0162,0.0167,0.0158,0.0154,0.0152,0.0128,0.0121,0.0097,0.0092,0.0085,0.0112,0.0077,0.0104,0.015,0.0145,0.0151,0.0156,0.0122,0.0123,0.011,0.011,0.011,0,0.0152,0.0179,0.0169,0.019,0.0199,0.0175,0.0199,0.0192,0.018,0.0187,0.0161,0.0145,0.0121,0.0139,0.0145,0.0128,0.0107,0.0128,0.0154,0.0158,0.0162,0.0127,0.0127,0.0114,0.0113,0.0113,0.0113,0,0.0196,0.0212,0.0226,0.0245,0.0252,0.0268,0.0262,0.0267,0.0254,0.0248,0.0255,0.0219,0.0215,0.0206,0.0181,0.0205,0.0174,0.0162,0.014,0.0174,0.0133,0.0133,0.0119,0.0118,0.0117,0.0116,0,0,0.0218,0.0251,0.0254,0.0275,0.0285,0.0298,0.0318,0.0336,0.0364,0.0334,0.0365,0.0336,0.0316,0.0306,0.0278,0.0269,0.0269,0.0231,0.0228,0.0204,0.0237,0.0171,0.0163,0.0264,0.0265,0.0265,0.0193,0,0.0255,0.0307,0.0313,0.0359,0.0384,0.038,0.0411,0.0421,0.0418,0.0439,0.0405,0.0424,0.0355,0.0368,0.0341,0.0303,0.0273,0.0288,0.0202,0.0198,0.0142,0.0163,0.0185,0.0119,0.0192,0.0192,0.0192,0,0.0298,0.0328,0.0382,0.0431,0.0444,0.0467,0.0517,0.0544,0.0562,0.0567,0.0561,0.0535,0.0525,0.0462,0.0388,0.0402,0.0319,0.027,0.0266,0.0181,0.0132,0.0098,0.0114,0.019,0.019,0.019,0.019,0,0.0325,0.0376,0.0423,0.0437,0.0487,0.0517,0.0548,0.0582,0.0634,0.0658,0.0695,0.0653,0.0659,0.0561,0.0431,0.0425,0.033,0.0313,0.0163,0.0156,0.0146,0.0137,0.0244,0.0244,0.0244,0.0244,0.0245,0,0.0363,0.0399,0.044,0.0466,0.0538,0.056,0.0637,0.067,0.0737,0.0809,0.0767,0.0805,0.0688,0.061,0.047,0.0307,0.0354,0.0172,0.0141,0.0168,0.0162,0.0204,0.02,0.0242,0.0242,0.0243,0.0243,0,0.0382,0.0408,0.0466,0.0527,0.0552,0.0605,0.0706,0.0775,0.0829,0.0921,0.0947,0.0942,0.0849,0.0682,0.053,0.0374,0.0222,0.014,0.0159,0.013,0.004,0.0041,-0.0004,-0.0007,-0.0009,-0.0011,-0.0013,0,0.0397,0.0429,0.0507,0.0552,0.0579,0.0658,0.0732,0.0815,0.0901,0.0998,0.1058,0.1012,0.097,0.0703,0.0448,0.0187,0.0166,0.0022,0.0013,0.0045,0.0019,0.0024,0.0027,0.0022,0.0021,0.002,0.0019,0,0.0425,0.0451,0.0499,0.0599,0.0673,0.0766,0.0873,0.0975,0.1083,0.1166,0.1263,0.1242,0.0975,0.0741,0.0366,0.0182,0.0071,-0.0009,0.0045,0.0074,0.0061,0.0038,0.0043,0.001,0.0011,0.0012,0.0012,0.0012,0.0441,0.048,0.0554,0.0656,0.0745,0.0888,0.0996,0.1119,0.1281,0.143,0.1393,0.1362,0.1058,0.0602,0.0294,-0.0017,-0.0009,-0.0109,-0.0102,-0.0094,-0.0086,-0.0102,-0.0184,-0.0185,-0.0185,-0.0185,-0.0185,0,0.0471,0.052,0.0614,0.0746,0.0869,0.0902,0.1104,0.1229,0.1424,0.1507,0.1561,0.1272,0.0989,0.0652,0.0189,-0.0108,-0.011,-0.0198,-0.0113,-0.0104,-0.0096,-0.0084,-0.0184,-0.0185,-0.0185,-0.0185,0,0,0.0486,0.0582,0.0648,0.0848,0.0933,0.11,0.1226,0.1402,0.1515,0.1605,0.1582,0.1507,0.1087,0.0761,0.0361,0.0111,0.0073,0.0044,0.0068,0.0223,0.0235,-0.0032,-0.0002,0,0,0,0,0]}],[{"header":{"parameterUnit":"m.s-1","parameterCategory":2,"la1":30.2991,"la2":30.254,"lo1":-89.0895,"lo2":-89.0444,"dy":0.0017,"dx":0.0017,"nx":28,"ny":28,"refTime":"2025-08-18T09:00:00:Z","depth":"4","parameterNumber":2,"parameterNumberName":"U-component_of_CURRENTS"},"data":[0,0,0,0,0,0,0,0,0,0,0,0,0,0,0,0,0,0,0,0,0,0,0,0,0,0,0,0,0,0,0,0,0,0,0,0,0,0,0,0,0,0,0,0,0,0,0,0,0,0,0,0,0,0,0,0,0,0,0.1442,0.1443,0,0.1491,0.1491,0.1491,0.1525,0.1526,0.1526,0.1527,0.1596,0.1597,0.1598,0,0,0,0,0,0,0,0,0,0,0,0,0,0.1389,0.139,0.1442,0.1443,0.1444,0.1491,0.1491,0.1491,0.1525,0.1526,0.1526,0.1527,0.1595,0.1597,0.1598,0,0,0,0,0,0,0,0,0,0,0,0,0,0.1419,0.139,0.1442,0.1469,0.1472,0.1491,0.1491,0.1491,0.1525,0.1526,0.1526,0.1527,0.1595,0.1597,0.1598,0.1593,0,0,0.1604,0.1605,0,0,0,0,0,0,0,0,0.1417,0.1421,0.1464,0.1467,0.1471,0.1506,0.1498,0.1528,0.1525,0.1501,0.1527,0.1528,0.1569,0.1573,0.1575,0.1596,0.1599,0.1605,0.1606,0.1607,0.1607,0,0,0,0,0,0,0,0.1415,0.1419,0.1458,0.1465,0.1469,0.1483,0.1487,0.1503,0.1527,0.1503,0.1507,0.1517,0.1571,0.1573,0.1577,0.16,0.1605,0.1606,0.1607,0.1608,0.1719,0.172,0,0,0,0,0,0,0.1415,0.1417,0.1457,0.146,0.145,0.1483,0.1488,0.1491,0.1527,0.1534,0.1517,0.1519,0.1569,0.1575,0.158,0.1662,0.1607,0.1608,0.161,0.1717,0.1719,0.1721,0,0,0,0,0,0,0.1413,0.1417,0.1455,0.1443,0.1449,0.1483,0.1486,0.1491,0.1526,0.1537,0.1544,0.1549,0.157,0.1577,0.1611,0.1661,0.1609,0.1611,0.1715,0.1718,0.172,0.177,0,0,0,0,0,0,0.1411,0.1416,0.1432,0.1442,0.145,0.1481,0.1486,0.1492,0.1531,0.1535,0.1567,0.1573,0.1571,0.1608,0.1613,0.1663,0.1613,0.1713,0.1716,0.1719,0.1767,0.1775,0.1781,0,0,0,0,0,0.1409,0.142,0.1432,0.1438,0.1465,0.1482,0.1487,0.1512,0.1532,0.1547,0.1567,0.1573,0.1634,0.161,0.1616,0.1668,0.1711,0.1715,0.1719,0.1763,0.1773,0.1781,0,0,0,0,0,0,0.1405,0.1425,0.1439,0.1456,0.1478,0.149,0.1514,0.153,0.1558,0.1575,0.1582,0.1588,0.1646,0.1644,0.1618,0.1711,0.168,0.1685,0.1712,0.1721,0.1728,0.1735,0.1614,0,0,0,0,0,0.1411,0.1428,0.1446,0.1465,0.1479,0.1504,0.1522,0.1541,0.1561,0.1576,0.1598,0.1628,0.1661,0.1679,0.1704,0.1742,0.175,0.1784,0.1791,0.1798,0.1808,0.1866,0.188,0.1734,0.1734,0.1734,0,0,0.1416,0.1431,0.1442,0.1467,0.1489,0.1511,0.1517,0.1554,0.1581,0.1579,0.163,0.1658,0.1678,0.1726,0.1753,0.1733,0.184,0.1803,0.1808,0.1815,0.1872,0.1886,0.1899,0.1737,0.1736,0.1736,0,0,0.1425,0.1448,0.1464,0.1485,0.1526,0.1539,0.1558,0.159,0.1616,0.1655,0.1676,0.1724,0.1763,0.179,0.1806,0.1868,0.1881,0.1895,0.1934,0.1991,0.2003,0.2014,0.2024,0.2036,0.1893,0.1894,0.1894,0,0.1436,0.1453,0.1473,0.1495,0.1518,0.1556,0.1579,0.1608,0.165,0.1684,0.1681,0.1779,0.1792,0.1863,0.1886,0.1887,0.1911,0.1895,0.2,0.2012,0.2022,0.203,0.2042,0.1896,0.1896,0.1896,0.1896,0,0.1447,0.1475,0.1489,0.1528,0.1552,0.1583,0.162,0.1665,0.1705,0.1739,0.1827,0.1846,0.1909,0.1927,0.1922,0.202,0.2008,0.2006,0.1975,0.204,0.2044,0.2055,0.1901,0.19,0.1899,0.1898,0,0,0.1431,0.1488,0.1495,0.1515,0.1575,0.1588,0.1653,0.1714,0.1772,0.1826,0.1896,0.1959,0.2001,0.2023,0.2043,0.2083,0.2163,0.2084,0.2085,0.2088,0.2273,0.2112,0.2109,0.2194,0.2197,0.2199,0.2238,0,0.1439,0.147,0.1507,0.1548,0.1562,0.1626,0.1678,0.1746,0.1811,0.1889,0.195,0.2027,0.203,0.2076,0.2124,0.2165,0.2201,0.2151,0.2215,0.2216,0.2062,0.212,0.2208,0.2247,0.225,0.2252,0.2253,0,0.1433,0.1451,0.1487,0.155,0.1568,0.1614,0.171,0.1767,0.1893,0.1948,0.205,0.2105,0.2199,0.2178,0.2287,0.2265,0.2282,0.2291,0.2293,0.2135,0.2077,0.2175,0.2274,0.2272,0.2271,0.2269,0.2268,0,0.1376,0.1438,0.1465,0.1484,0.1563,0.1616,0.1682,0.18,0.1861,0.2009,0.2077,0.2191,0.2262,0.2319,0.2357,0.2345,0.2446,0.2423,0.2286,0.2273,0.2383,0.2371,0.2494,0.2494,0.2494,0.2494,0.2494,0,0.1346,0.1364,0.1449,0.1458,0.1506,0.159,0.1679,0.1765,0.1904,0.1982,0.2121,0.2186,0.2311,0.238,0.2393,0.2372,0.2483,0.2301,0.2284,0.2399,0.2389,0.239,0.2377,0.2495,0.2495,0.2495,0.2494,0,0.1258,0.1322,0.1345,0.1439,0.1478,0.1513,0.1659,0.1716,0.1882,0.1989,0.2046,0.2215,0.2305,0.2385,0.2465,0.2401,0.2399,0.2362,0.2467,0.2454,0.2174,0.2164,0.2205,0.22,0.2196,0.2192,0.2189,0,0.1208,0.1215,0.1304,0.132,0.1368,0.145,0.1505,0.1676,0.1743,0.1976,0.2006,0.2168,0.2256,0.2249,0.2335,0.2344,0.2319,0.2294,0.2241,0.2171,0.2151,0.2147,0.2143,0.2182,0.2181,0.218,0.2179,0,0.109,0.114,0.1158,0.1204,0.1258,0.13,0.1408,0.1449,0.1652,0.1821,0.1931,0.2,0.2092,0.2148,0.218,0.2179,0.2297,0.2248,0.2256,0.2207,0.2143,0.2127,0.2128,0.2164,0.2166,0.2167,0.2168,0,0.1003,0.0979,0.1028,0.1062,0.1121,0.1139,0.1213,0.1312,0.1414,0.1696,0.1717,0.1903,0.2064,0.2062,0.2084,0.208,0.2043,0.1967,0.1989,0.2007,0.1924,0.1813,0.1725,0,0,0,0,0,0.09,0.0867,0.088,0.0909,0.0974,0.102,0.1137,0.1227,0.144,0.1469,0.1601,0.1685,0.1767,0.1854,0.1809,0.1959,0.2022,0.1894,0.1937,0.208,0.2098,0.2018,0,0,0,0,0,0,0.0825,0.0817,0.0824,0.0793,0.0804,0.0855,0.0929,0.1065,0.1105,0.1336,0.1391,0.1569,0.1666,0.178,0.1776,0.1798,0.1785,0.2011,0.2005,0.2071,0.2086,0.21,0.2024,0,0,0,0,0]},{"header":{"parameterUnit":"m.s-1","parameterCategory":2,"la1":30.2991,"la2":30.254,"lo1":-89.0895,"lo2":-89.0444,"dy":0.0017,"dx":0.0017,"nx":28,"ny":28,"refTime":"2025-08-18T09:00:00:Z","depth":"4","parameterNumber":3,"parameterNumberName":"V-component_of_CURRENTS"},"data":[0,0,0,0,0,0,0,0,0,0,0,0,0,0,0,0,0,0,0,0,0,0,0,0,0,0,0,0,0,0,0,0,0,0,0,0,0,0,0,0,0,0,0,0,0,0,0,0,0,0,0,0,0,0,0,0,0,0,0.0091,0.0091,0,0.0079,0.0079,0.0078,0.0063,0.0063,0.0062,0.0062,0.0032,0.0031,0.003,0,0,0,0,0,0,0,0,0,0,0,0,0,0.0075,0.0075,0.0091,0.0091,0.0091,0.0079,0.0079,0.0078,0.0063,0.0063,0.0062,0.0062,0.0032,0.0031,0.003,0,0,0,0,0,0,0,0,0,0,0,0,0,0.0073,0.0075,0.0092,0.0083,0.0082,0.0079,0.0078,0.0078,0.0063,0.0063,0.0062,0.0062,0.0032,0.0031,0.003,0.0029,0,0,0.0027,0.0027,0,0,0,0,0,0,0,0,0.0073,0.0074,0.0084,0.0083,0.0082,0.0073,0.0061,0.0061,0.0063,0.0069,0.0062,0.0062,0.0044,0.0042,0.004,0.0027,0.0026,0.0027,0.0026,0.0026,0.0026,0,0,0,0,0,0,0,0.0073,0.0074,0.0085,0.0084,0.0083,0.007,0.007,0.0061,0.0057,0.0069,0.0068,0.0068,0.0044,0.0041,0.0039,0.0025,0.0027,0.0026,0.0025,0.0025,0.001,0.001,0,0,0,0,0,0,0.0079,0.0074,0.0086,0.0085,0.0078,0.0071,0.007,0.0075,0.0058,0.0055,0.0068,0.0067,0.0042,0.004,0.0038,0.0045,0.0026,0.0025,0.0024,0.001,0.001,0.001,0,0,0,0,0,0,0.0079,0.008,0.0086,0.008,0.008,0.0072,0.0077,0.0075,0.0075,0.0058,0.0054,0.007,0.0042,0.0039,0.0034,0.0043,0.0025,0.0024,0.0009,0.001,0.001,0.0053,0,0,0,0,0,0,0.0078,0.008,0.0086,0.008,0.008,0.009,0.0078,0.0075,0.0076,0.0074,0.0058,0.0055,0.0042,0.0036,0.0033,0.0041,0.0023,0.0009,0.001,0.001,0.0051,0.0055,0.0058,0,0,0,0,0,0.0078,0.009,0.0086,0.0088,0.0089,0.0091,0.009,0.0082,0.0076,0.008,0.0068,0.0056,0.0036,0.0035,0.0032,0.004,0.0009,0.0009,0.001,0.005,0.0054,0.0058,0,0,0,0,0,0,0.0085,0.0089,0.0085,0.0098,0.0096,0.0089,0.0092,0.0086,0.008,0.0078,0.006,0.0056,0.0053,0.004,0.004,0.0036,0.002,0.002,0.0051,0.0055,0.0058,0.0057,0.0022,0,0,0,0,0,0.0089,0.0099,0.0098,0.0107,0.0108,0.0101,0.0101,0.0096,0.0089,0.0086,0.0075,0.0062,0.0052,0.0049,0.0037,0.0038,0.0007,0.004,0.0043,0.0046,0.0042,0.0004,0.0004,0.0012,0.0012,0.0012,0,0,0.0094,0.0098,0.0103,0.0109,0.0107,0.0115,0.01,0.0104,0.011,0.0084,0.0088,0.0072,0.0054,0.0053,0.0051,0.0045,0.0027,0.0047,0.0049,0.0044,0.0005,0.0004,0.0003,0.0012,0.0012,0.0012,0,0,0.011,0.0113,0.0127,0.013,0.0132,0.0127,0.0131,0.0127,0.0125,0.0126,0.0107,0.0094,0.0085,0.0071,0.0064,0.0076,0.0043,0.0076,0.0096,0.0059,0.0058,0.0057,0.0016,0.0011,0.0081,0.0081,0.0081,0,0.0115,0.0134,0.013,0.0144,0.0151,0.0136,0.0151,0.0148,0.0142,0.0141,0.0132,0.0106,0.0092,0.0085,0.0091,0.0083,0.0056,0.0086,0.0063,0.0061,0.0059,0.0018,0.0011,0.0083,0.0083,0.0083,0.0083,0,0.0142,0.0157,0.0166,0.0179,0.0184,0.0195,0.0192,0.0194,0.0187,0.0179,0.0169,0.0143,0.0127,0.0122,0.0112,0.0096,0.0078,0.007,0.0055,0.0061,0.0017,0.0009,0.0086,0.0086,0.0085,0.0085,0,0,0.0154,0.018,0.0184,0.0201,0.0205,0.0216,0.0225,0.0229,0.0239,0.0217,0.0217,0.0194,0.0172,0.0161,0.0142,0.0111,0.0074,0.009,0.0087,0.0051,-0.0012,-0.0009,-0.0018,0.0063,0.0062,0.0062,-0.0037,0,0.0176,0.0213,0.0217,0.0252,0.0271,0.0266,0.0279,0.0278,0.027,0.0265,0.0225,0.0219,0.0191,0.0187,0.0149,0.0093,0.0056,0.0101,-0.0014,-0.0018,-0.0015,-0.0025,0.0058,-0.0042,-0.0044,-0.0045,-0.0046,0,0.0199,0.0224,0.0262,0.0297,0.0306,0.0323,0.0343,0.0355,0.0338,0.0327,0.0299,0.0268,0.0221,0.0198,0.0091,0.0121,0.0059,0.0008,0.0003,-0.0016,-0.0029,-0.0051,-0.0061,-0.0059,-0.0058,-0.0057,-0.0057,0,0.0215,0.0256,0.0291,0.0303,0.0336,0.0356,0.0374,0.0374,0.04,0.0368,0.0373,0.0299,0.0275,0.0179,0.0079,0.0084,-0.0048,-0.0055,-0.0117,-0.0118,-0.011,-0.0108,-0.0136,-0.0136,-0.0136,-0.0136,-0.0135,0,0.0237,0.0267,0.0307,0.033,0.0385,0.039,0.0444,0.0444,0.0453,0.0485,0.0413,0.0409,0.0272,0.0187,0.0081,-0.0043,-0.005,-0.0123,-0.0144,-0.009,-0.0084,-0.0116,-0.0112,-0.0139,-0.0138,-0.0138,-0.0137,0,0.0252,0.0272,0.0324,0.0373,0.0398,0.0439,0.0514,0.0553,0.0543,0.0578,0.0573,0.049,0.0369,0.0225,0.006,-0.0023,-0.0152,-0.0193,-0.013,-0.0145,-0.0202,-0.0195,-0.0279,-0.028,-0.028,-0.0281,-0.0281,0,0.0264,0.0292,0.0369,0.0417,0.0447,0.0516,0.0574,0.0599,0.0644,0.0633,0.0651,0.0545,0.0471,0.0234,0.007,-0.0153,-0.0174,-0.0243,-0.0222,-0.0204,-0.0217,-0.0209,-0.0202,-0.0282,-0.0283,-0.0283,-0.0283,0,0.0298,0.0325,0.0376,0.0472,0.0544,0.0631,0.0708,0.0744,0.077,0.0763,0.0722,0.0593,0.045,0.0247,0.0072,-0.0082,-0.0203,-0.025,-0.025,-0.0231,-0.021,-0.022,-0.0212,-0.0285,-0.0285,-0.0285,-0.0284,0,0.0333,0.0375,0.0446,0.0532,0.0623,0.0712,0.0752,0.0802,0.0838,0.0817,0.0798,0.063,0.0528,0.0283,0.0123,-0.0036,-0.0073,-0.0112,-0.012,-0.0119,-0.0043,0.0009,-0.0023,0,0,0,0,0,0.0366,0.042,0.0504,0.0597,0.0686,0.0739,0.0831,0.086,0.0878,0.0866,0.0835,0.07,0.0449,0.0333,0.0175,0.0103,-0.0107,-0.0087,-0.0157,-0.0297,-0.0295,-0.0232,0,0,0,0,0,0,0.0391,0.0469,0.0509,0.0634,0.07,0.0806,0.0862,0.088,0.0872,0.0856,0.0724,0.0659,0.0412,0.0533,0.0167,0.0117,0.0053,-0.0207,-0.021,-0.0299,-0.0296,-0.0294,-0.0229,0,0,0,0,0]}]]